STARLINK-11254 [DTC] (60731 NORAD) Tracking and Keplerian Element Data

This shows tracking and keplerian element data for the satellite.

Feedback or suggestion? Click here.




ElementValue
Catalog60731
NameSTARLINK-11254 [DTC]
Epoch Orbit829
Epoch Day286.79760428
Epoch Year2024
RAAN124.3206
Inclination53.1591
Eccentricity0.000109
Argument of Perigee102.602
Mean Anonmoly257.512
Mean Motion15.69750546
Decay Rate0.00033926
L11 60731U 24152M 24286.79760428 .00033926 00000+0 28326-3 0 9992
L22 60731 53.1591 124.3206 0001090 102.6020 257.5120 15.69750546 8291



Live tracking and technical data element details for STARLINK-11254 [DTC] (NORAD 60731). STARLINK-11254 [DTC] can be tracked NOW for your location showing map with azimuth and elevation plus other details from your city location.







IsCatalogInMostPopularTable: catalog: 60731, numindb: 9
Update: records affected: 1



GetName: 60731 STARLINK-11254 [DTC]

Hit Count: updated at: Tue, 03 Dec 2024 03:26:05 GMT